Regional Weather Roundup
Issued by NWS Nashville, TN

Home | Current Version | Previous Version | Text Only | Print | Product List | Glossary On
Versions: 1 2 3 4 5 6 7 8 9 10 11 12 13 14 15 16 17 18 19 20 21 22 23 24 25 26 27 28 29 30 31 32 33 34 35 36 37 38 39 40 41 42 43 44 45 46 47 48 49 50
000
ASUS44 KOHX 251010
RWROHX
MIDDLE TENNESSEE HOURLY WEATHER ROUNDUP
NATIONAL WEATHER SERVICE NASHVILLE TN
500 AM CDT TUE APR 25 2017

NOTE: "FAIR" INDICATES FEW OR NO CLOUDS BELOW 12,000 FEET WITH
NO SIGNIFICANT WEATHER AND/OR OBSTRUCTIONS TO VISIBILITY.

* THESE REPORTS ARE NOT UNDER NWS QUALITY CONTROL AND MAY NOT
  REPORT WEATHER SUCH AS PRECIPITATION AND FOG.


TNZ005>011-023>034-057-059-062>066-078-080-251100
...NORTHERN MIDDLE TENNESSEE...

CITY           SKY/WX    TMP DP  RH WIND       PRES   REMARKS
CLARKSVILLE    FOG       49  48  97 CALM      29.76S VSB 1/4
CROSSVILLE     FOG       51  50  96 W6        29.78S VSB 1/4
GALLATIN       FOG       48  48 100 CALM      29.79S VSB 1/4
DICKSON        CLEAR     51  51 100 W3        29.76S
LEBANON        CLEAR     49  49 100 CALM      29.75S
NASHVILLE      CLEAR     53  52  96 W3        29.77F
PORTLAND       FOG       52  52 100 CALM      29.76F VSB 1/2
SMYRNA         PTCLDY    48  48 100 CALM      29.78  FOG
SPARTA         FOG       54  54 100 CALM      29.77R VSB 0
SPRINGFIELD    FOG       50  50 100 CALM      29.76S VSB 1/2
WEST NASHVILLE CLEAR     48  48 100 CALM      29.77S
$$
TNZ056-058-060-061-075>077-079-093>097-251100
...SOUTHERN MIDDLE TENNESSEE...

CITY           SKY/WX    TMP DP  RH WIND       PRES   REMARKS
COLUMBIA       MOCLDY   N/A N/A N/A CALM      29.76S VSB 1
FAYETTEVILLE     N/A     50  50 100 CALM      29.77F
MURFREESBORO   CLOUDY    51  50  97 CALM      29.77S VSB 3/4
$$


...KEY TO REMARKS...
VSB - VISIBILITY IN MILES
WCI - WIND CHILL INDEX
HX  - HEAT INDEX




USA.gov is the U.S. government's official web portal to all federal, state and local government web resources and services.